Temperature
17 16 16 16 16 16 16 15 15 15 15 15 15 14 14 14 14 14 14 13 13 13 13 13 13 13 13 12 12 12 12 12 12 12 11 11 11 11 11 11 11 11 11
16 16 16 16 16 15 15 15 15 15 15 14 14 14 14 14 14 13 13 13 13 13 12 12 12 13 12 12 12 12 12 11 11 11 11 11 11 11 11 10 10 10 10
16 16 16 15 15 15 15 15 15 15 14 14 14 14 14 13 13 13 13 13 13 12 12 12 12 12 12 12 12 12 11 11 11 11 11 11 10 10 10 10 10 10 10
16 16 16 15 15 15 15 15 15 14 14 14 14 14 13 13 13 13 13 12 12 12 12 12 12 12 12 11 11 11 11 11 11 10 10 10 10 10 10 10 9 9 9
16 16 16 15 15 15 15 15 14 14 14 14 14 13 13 13 13 13 12 12 12 12 12 12 12 12 12 11 11 11 11 10 10 10 10 10 10 10 10 9 9 9 9
16 15 16 15 15 15 15 15 14 14 14 13 13 13 13 13 13 13 12 12 12 11 11 11 11 11 11 11 11 11 11 10 10 10 9 9 9 9 9 9 9 9 8
15 15 15 15 15 15 15 14 14 14 14 13 13 13 13 13 13 12 12 12 11 11 11 11 11 11 11 11 11 10 10 10 10 9 9 9 9 9 9 8 8 8 8
15 15 15 15 15 14 14 14 14 13 13 13 13 13 13 13 12 12 12 11 11 11 11 11 11 10 11 10 10 10 10 10 10 10 9 9 9 9 8 8 8 8 7
14 15 15 15 14 14 14 14 14 13 13 13 13 12 12 12 12 12 12 11 11 11 11 10 10 10 10 10 10 10 10 10 10 9 9 9 9 8 8 8 7 7 7
14 14 14 14 14 14 14 14 13 13 13 13 12 12 12 12 12 12 11 11 11 10 10 10 10 10 10 10 9 9 9 9 9 9 9 8 8 8 8 7 7 7 7
14 14 14 14 14 14 13 13 13 13 12 12 12 12 12 12 12 11 11 11 10 10 10 10 10 10 10 9 9 9 9 9 8 8 8 8 7 7 7 7 7 7 6
13 13 13 13 13 13 13 13 12 12 12 12 12 11 11 11 11 11 11 11 10 10 10 10 10 10 9 9 9 9 9 8 8 7 7 7 7 7 7 7 6 6 6
13 13 13 13 13 13 12 12 12 12 11 11 11 11 11 11 11 11 10 10 10 10 10 10 10 9 9 9 9 8 8 8 7 7 7 6 6 6 6 6 6 6 6
12 12 12 12 12 12 12 12 12 11 11 11 11 10 10 10 10 10 10 10 10 10 9 9 9 9 9 9 8 8 8 7 7 7 6 6 6 6 6 5 5 5 5
12 12 12 12 12 12 12 11 11 11 11 11 10 10 10 10 10 10 10 10 9 9 9 9 9 9 8 8 8 8 8 7 7 6 6 6 6 5 5 5 5 5 4
11 11 11 11 11 11 11 11 11 10 10 10 10 10 10 10 10 10 10 9 9 9 9 8 8 8 8 8 8 8 7 7 6 6 6 5 5 5 5 5 5 4 4
11 11 11 11 11 11 10 10 10 10 10 10 10 10 10 10 9 9 9 9 9 8 8 8 8 8 8 8 7 7 7 6 6 6 5 5 5 5 5 4 4 4 4
10 10 10 10 10 10 10 10 9 9 9 10 10 9 9 9 9 9 9 8 8 8 8 8 8 7 7 7 7 7 6 6 6 5 5 5 4 4 4 4 4 3 3
10 10 10 10 10 9 9 9 9 9 9 9 9 9 9 9 9 8 8 8 8 8 8 7 7 7 7 7 7 6 6 6 5 5 5 5 4 4 4 4 3 3 3
9 9 9 9 9 9 9 9 9 9 8 8 8 8 8 8 8 8 8 8 7 7 7 7 7 7 7 7 6 6 6 5 5 5 4 4 4 4 3 3 3 3 2
9 9 9 9 9 8 8 8 8 8 8 8 8 8 8 8 7 7 7 7 7 7 7 7 7 7 6 6 6 6 5 5 5 4 4 4 4 3 3 3 2 2 2
9 9 9 8 8 8 8 8 8 8 8 8 8 7 7 7 7 7 7 7 7 7 7 6 6 6 6 6 6 5 5 5 4 4 4 4 3 3 3 2 2 2 1
8 8 8 8 8 8 8 7 7 7 7 7 7 7 7 7 7 6 6 7 7 7 6 6 6 6 6 5 5 5 5 4 4 4 4 3 3 3 2 2 2 2 1
8 8 8 7 7 7 7 7 7 7 7 6 6 7 6 6 6 6 6 6 6 6 6 6 6 6 5 5 5 5 4 4 4 4 3 3 3 2 2 2 2 1 1
8 7 7 7 7 7 7 6 6 6 6 6 6 6 6 6 6 6 5 5 6 6 6 5 5 5 5 5 4 4 4 4 4 3 3 3 2 2 2 2 1 1 1
7 7 7 7 7 7 6 6 6 6 6 6 6 6 6 6 5 5 5 5 5 5 5 5 5 5 4 4 4 4 4 3 3 3 3 2 2 2 2 1 1 1 0
Wind_Speed
6 6 5 5 5 5 4 3 3 3 3 3 2 2 2 2 2 3 2 2 2 2 2 1 1 1 1 1 1 1 2 2 2 2 1 1 1 1 1 2 3 2 3
5 6 5 5 5 4 4 4 3 3 3 3 3 3 2 2 3 3 3 3 2 2 2 2 1 1 1 1 1 2 2 2 3 2 2 1 2 2 2 2 2 2 2
5 5 5 5 5 5 4 4 4 4 3 3 3 3 3 3 3 3 3 3 2 2 2 2 2 2 2 2 2 2 2 2 2 3 2 1 2 2 2 2 2 2 2
5 6 6 6 5 5 5 4 4 4 4 4 3 3 3 3 3 3 3 3 3 2 2 2 2 2 2 2 2 2 2 2 2 2 2 2 2 2 2 2 2 2 2
6 6 6 5 5 5 5 5 4 4 4 4 3 3 3 3 2 3 3 3 3 3 2 2 1 1 2 1 2 2 2 2 2 3 3 3 3 2 3 3 3 3 2
6 6 5 5 5 5 5 5 5 5 4 4 4 3 3 2 2 2 4 4 4 3 2 2 1 1 1 1 1 3 3 3 3 3 4 4 4 4 3 4 4 4 3
6 6 5 6 6 6 5 5 5 5 5 4 4 4 4 3 4 4 4 4 4 3 3 2 1 1 2 1 1 3 3 3 4 5 5 5 5 4 4 4 4 5 4
6 5 5 6 6 5 5 6 6 5 5 5 5 5 4 4 5 5 4 5 4 3 3 3 2 2 1 1 1 1 1 1 3 4 4 4 4 5 4 5 5 5 4
5 6 6 6 6 6 6 6 5 5 5 5 5 5 5 5 6 6 5 3 4 4 3 3 3 2 1 1 2 2 2 1 1 1 2 2 3 4 4 3 3 4 4
5 5 5 5 6 6 7 6 5 6 5 5 5 5 5 5 7 7 6 3 4 3 3 3 2 2 1 2 4 3 4 3 3 2 2 3 3 2 4 4 4 5 4
4 4 5 5 6 6 6 6 6 5 5 5 5 5 5 4 6 7 6 4 4 4 3 3 2 3 2 3 5 4 3 4 4 4 3 3 2 2 2 3 3 4 4
4 4 5 5 4 5 5 5 6 6 6 6 5 4 4 4 4 6 6 5 4 4 4 3 2 3 4 5 5 3 2 4 3 3 3 3 3 3 2 3 3 4 4
4 4 5 5 5 5 5 5 5 5 5 5 5 4 4 3 3 5 6 6 5 4 3 1 1 3 4 5 4 4 4 4 4 4 4 4 3 4 3 2 3 3 4
5 5 4 5 5 5 4 4 4 5 5 4 4 4 4 4 3 3 3 4 4 4 3 2 3 4 5 4 4 4 4 4 4 4 4 4 3 3 3 3 4 3 4
5 4 4 4 4 4 4 3 4 4 4 4 4 4 4 4 3 3 3 4 4 3 3 3 3 3 3 3 3 3 3 4 4 4 4 4 4 4 4 4 4 5 5
4 4 4 4 4 4 4 2 1 2 2 2 2 3 3 3 3 4 4 3 3 4 4 4 4 4 4 4 4 4 4 4 4 4 4 4 4 4 4 4 4 5 6
4 4 4 4 4 4 4 4 3 1 1 2 3 3 3 2 3 4 4 3 4 6 5 5 5 4 4 4 4 4 4 4 4 4 5 5 5 5 5 5 4 5 5
4 4 4 4 4 4 4 4 4 3 3 2 3 4 4 4 4 4 4 4 3 5 5 5 5 4 4 5 5 4 4 4 4 4 5 5 5 5 5 5 5 5 5
3 3 3 3 3 3 4 4 4 4 4 3 2 2 4 3 4 5 6 4 5 5 5 5 5 5 5 5 5 5 5 5 5 5 5 5 5 5 5 5 5 5 6
3 3 3 3 3 3 3 4 4 4 4 3 3 2 2 2 2 3 4 4 5 5 4 5 5 5 5 5 5 5 5 5 5 5 5 5 5 5 6 6 6 6 6
3 3 4 4 4 4 4 4 4 4 3 3 3 2 3 4 4 4 4 4 4 5 4 4 4 4 4 4 4 5 6 5 5 5 5 5 5 5 5 5 6 6 6
3 3 4 4 4 4 4 4 4 4 4 4 3 2 4 4 4 4 4 4 4 4 4 4 4 4 4 5 5 5 5 5 5 5 5 5 5 5 6 6 6 5 5
4 4 4 4 4 4 4 4 4 4 4 4 3 3 3 4 4 4 4 4 3 3 3 4 4 3 4 4 5 5 5 5 5 5 5 5 5 5 5 6 6 6 6
4 4 4 4 4 4 4 4 4 4 4 4 4 4 4 4 4 4 3 3 3 3 3 3 4 4 5 4 4 4 4 5 5 5 6 6 6 5 5 5 6 6 6
5 5 5 5 4 4 4 4 4 4 4 4 4 4 4 4 3 3 3 2 3 3 3 3 3 4 5 5 5 4 4 4 5 5 5 5 5 6 5 6 5 5 5
5 5 5 5 5 5 5 5 5 5 5 4 4 4 4 4 4 3 3 3 3 3 3 3 4 5 5 5 5 4 4 5 5 6 5 5 5 5 5 5 6 5 6
Wind_Direction
180 181 179 185 185 180 180 180 183 176 170 173 177 175 160 159 158 160 166 161 176 172 174 190 199 234 217 213 219 236 263 274 263 283 304 319 307 329 354 329 341 354 35
181 180 182 181 182 183 182 184 188 185 184 185 175 172 171 176 177 174 176 178 191 200 201 202 204 190 220 234 225 228 244 260 263 275 279 293 305 323 319 313 320 332 350
175 179 181 184 188 192 192 191 195 193 185 187 185 185 190 195 196 193 191 194 200 205 211 217 225 215 217 213 222 233 240 240 257 263 278 296 290 305 297 292 290 303 309
171 177 185 191 193 197 197 198 201 197 191 193 193 197 201 203 203 202 206 209 210 211 223 234 246 243 243 234 226 238 238 235 244 258 271 275 280 293 285 285 286 288 302
178 183 189 192 193 197 196 202 201 199 201 197 197 197 200 208 207 212 208 213 215 214 219 232 240 291 346 310 272 252 238 239 244 257 266 274 276 282 284 281 283 283 283
188 193 189 190 191 198 199 200 202 204 204 198 199 199 200 200 151 222 234 215 218 218 224 233 213 194 182 213 294 310 295 263 258 257 264 269 279 284 291 283 281 283 286
190 188 187 191 192 197 196 196 202 203 201 202 206 207 210 187 164 193 231 234 227 230 235 233 229 220 232 251 209 220 247 269 280 275 274 279 285 289 283 278 280 286 291
190 189 191 192 195 196 198 201 205 203 199 205 209 210 208 189 168 186 208 227 224 224 232 238 225 216 195 280 264 256 273 268 255 262 276 289 297 301 287 280 279 274 273
198 200 198 196 195 197 199 204 205 204 203 205 204 206 205 193 167 175 198 211 218 219 224 228 235 232 96 295 258 256 265 291 22 349 323 310 326 315 295 272 269 268 275
209 211 204 200 201 204 206 206 204 204 206 205 204 207 207 206 168 176 202 211 219 219 220 220 209 234 188 259 253 254 260 268 267 249 244 243 254 266 269 270 275 273 281
215 215 212 207 208 207 205 200 200 201 202 204 203 205 208 204 174 175 196 217 222 225 223 226 209 177 230 259 269 264 274 279 263 260 261 263 271 284 288 287 293 285 280
215 214 214 208 201 196 195 197 199 195 198 200 204 204 209 203 196 186 196 217 246 232 232 232 213 183 226 246 254 262 276 268 257 255 258 262 268 273 282 289 286 284 284
209 210 208 201 192 187 187 188 192 193 200 203 205 211 209 207 196 185 194 205 225 239 240 233 233 202 222 232 221 226 237 243 247 252 257 265 272 278 280 279 282 282 282
211 208 201 197 189 184 185 188 192 197 201 204 208 216 215 208 210 198 200 199 195 218 234 198 202 214 222 227 219 222 237 246 249 253 262 267 267 267 269 273 272 274 278
214 206 202 197 187 184 184 191 198 200 201 205 210 212 213 217 211 202 210 212 211 206 212 225 225 217 219 227 232 233 233 234 240 249 256 260 260 261 264 269 270 271 271
216 206 201 193 186 187 184 181 145 211 166 195 221 221 225 221 170 182 204 217 203 182 198 220 226 227 229 231 234 235 235 237 240 245 249 254 258 261 264 268 267 266 267
220 209 197 196 192 194 194 194 196 177 143 197 202 211 219 183 174 182 187 193 192 190 212 227 233 235 238 238 237 239 244 246 246 247 251 255 258 261 264 267 269 271 272
226 214 207 203 201 199 201 204 204 205 215 230 212 197 192 191 195 191 179 178 204 213 229 236 240 240 241 244 246 246 247 248 247 249 251 254 255 260 263 266 267 269 274
225 221 215 211 209 206 205 208 212 215 219 221 212 189 181 190 197 190 186 210 221 229 235 241 245 244 244 244 246 246 244 244 244 247 250 252 254 256 261 265 268 269 272
221 196 204 209 211 210 209 211 214 219 221 223 224 219 180 191 216 209 214 229 237 242 242 244 244 242 241 241 242 242 244 244 243 244 247 248 251 254 259 263 265 267 270
227 208 197 211 216 215 215 217 216 217 222 225 230 218 198 214 224 227 233 240 243 248 249 250 248 242 239 239 240 239 243 246 244 242 243 247 250 252 257 259 260 264 270
223 219 213 216 219 220 220 222 220 218 221 226 235 221 198 222 232 235 239 247 250 253 252 251 251 248 243 238 238 240 243 247 247 244 244 246 249 253 256 258 259 262 265
224 223 219 218 219 216 217 219 219 221 224 225 227 228 224 232 239 244 248 253 256 256 252 246 247 251 251 247 242 241 243 246 246 244 245 245 247 251 254 255 256 260 261
222 223 223 222 219 219 221 222 223 226 230 232 229 228 232 234 241 249 257 262 264 261 255 250 249 252 257 260 255 250 248 251 252 245 243 244 247 250 251 253 255 255 258
220 223 224 223 219 218 222 224 224 226 230 235 235 232 234 236 238 246 258 265 270 266 267 265 256 254 258 260 259 258 254 252 251 249 241 238 242 247 250 252 252 256 258
223 224 224 221 217 217 220 224 227 229 231 234 235 236 238 239 238 240 246 255 268 269 271 269 262 262 264 260 256 257 249 237 235 243 240 233 237 243 246 249 252 253 256
Height
1544 1546 1547 1548 1549 1550 1551 1551 1552 1553 1553 1553 1553 1553 1554 1553 1553 1553 1554 1554 1554 1554 1554 1554 1554 1554 1554 1554 1554 1555 1555 1555 1554 1554 1553 1551 1550 1549 1548 1547 1546 1544 1543
1543 1544 1545 1546 1548 1549 1549 1550 1551 1551 1552 1552 1552 1552 1552 1552 1552 1552 1552 1552 1553 1553 1553 1553 1553 1552 1553 1553 1553 1553 1553 1552 1552 1551 1551 1550 1548 1547 1546 1545 1544 1543 1541
1541 1542 1544 1545 1546 1547 1548 1548 1549 1550 1550 1550 1551 1551 1551 1551 1551 1551 1551 1551 1551 1551 1551 1551 1551 1551 1551 1551 1551 1551 1551 1550 1550 1549 1549 1547 1546 1545 1544 1543 1542 1541 1540
1539 1540 1541 1543 1544 1545 1546 1547 1547 1548 1548 1549 1549 1549 1549 1549 1550 1550 1550 1550 1550 1550 1550 1550 1549 1549 1549 1549 1549 1549 1548 1548 1547 1547 1546 1546 1544 1543 1542 1541 1540 1539 1538
1537 1538 1539 1541 1542 1543 1544 1544 1545 1546 1546 1546 1547 1547 1547 1547 1548 1548 1548 1548 1548 1548 1548 1548 1547 1547 1547 1547 1547 1546 1546 1545 1545 1545 1544 1543 1542 1541 1540 1539 1538 1537 1535
1535 1536 1537 1538 1539 1540 1541 1542 1542 1543 1544 1544 1544 1545 1545 1545 1545 1545 1546 1546 1546 1546 1546 1546 1545 1545 1545 1544 1544 1544 1543 1543 1543 1542 1542 1541 1540 1539 1537 1537 1536 1535 1534
1532 1533 1534 1536 1537 1538 1538 1539 1539 1540 1541 1541 1542 1542 1542 1543 1543 1543 1543 1544 1544 1544 1544 1544 1543 1543 1542 1542 1541 1541 1541 1540 1540 1540 1539 1538 1537 1536 1535 1534 1533 1532 1530
1529 1530 1531 1532 1533 1535 1535 1536 1536 1537 1538 1538 1539 1539 1540 1540 1540 1540 1541 1541 1541 1541 1542 1541 1541 1541 1540 1539 1539 1539 1538 1537 1537 1536 1535 1535 1534 1533 1532 1531 1530 1528 1527
1526 1527 1528 1529 1530 1531 1532 1533 1534 1534 1535 1535 1536 1536 1536 1537 1537 1538 1538 1538 1538 1539 1539 1538 1538 1538 1537 1537 1537 1536 1535 1535 1534 1533 1531 1531 1530 1529 1528 1527 1526 1525 1524
1523 1524 1525 1525 1526 1527 1529 1530 1530 1531 1532 1533 1533 1533 1534 1534 1534 1534 1535 1535 1536 1536 1536 1535 1535 1535 1534 1534 1534 1533 1532 1532 1530 1529 1528 1527 1526 1525 1524 1523 1523 1522 1521
1520 1521 1521 1522 1523 1524 1525 1526 1527 1528 1529 1529 1530 1530 1530 1531 1531 1531 1532 1532 1532 1532 1532 1532 1532 1532 1531 1531 1531 1530 1529 1528 1527 1526 1525 1524 1523 1522 1520 1519 1519 1518 1517
1517 1517 1517 1518 1519 1520 1521 1522 1523 1524 1525 1526 1526 1527 1527 1527 1528 1528 1528 1528 1529 1529 1528 1529 1528 1528 1528 1528 1527 1526 1525 1525 1524 1522 1521 1520 1519 1518 1517 1516 1515 1514 1513
1512 1513 1513 1514 1515 1516 1517 1518 1519 1520 1521 1522 1523 1523 1523 1524 1524 1524 1524 1525 1525 1525 1525 1525 1525 1524 1524 1524 1523 1522 1522 1521 1520 1519 1518 1517 1516 1514 1513 1512 1510 1509 1508
1509 1509 1510 1510 1511 1512 1513 1514 1514 1515 1516 1518 1518 1519 1520 1520 1520 1520 1520 1521 1521 1521 1521 1521 1521 1521 1520 1519 1519 1518 1518 1517 1516 1515 1514 1513 1511 1510 1509 1508 1507 1505 1504
1505 1506 1506 1507 1508 1508 1509 1510 1511 1512 1513 1514 1514 1515 1515 1516 1516 1517 1516 1517 1517 1517 1517 1517 1517 1517 1516 1515 1515 1514 1514 1513 1511 1511 1510 1509 1507 1506 1505 1504 1503 1501 1500
1502 1502 1503 1503 1504 1505 1506 1507 1507 1508 1509 1510 1511 1512 1512 1513 1512 1512 1513 1513 1513 1513 1513 1513 1512 1512 1512 1511 1511 1510 1509 1509 1508 1507 1506 1504 1503 1502 1501 1500 1498 1497 1496
1499 1499 1499 1500 1501 1501 1502 1502 1503 1504 1505 1506 1507 1507 1508 1508 1508 1508 1508 1508 1508 1508 1508 1508 1508 1508 1507 1507 1506 1506 1505 1504 1503 1502 1501 1500 1499 1498 1497 1495 1494 1493 1491
1495 1495 1496 1497 1497 1498 1498 1499 1500 1500 1501 1502 1502 1503 1503 1504 1504 1504 1504 1503 1504 1504 1503 1503 1503 1503 1503 1502 1502 1501 1500 1499 1498 1498 1497 1496 1494 1493 1492 1491 1490 1488 1487
1492 1492 1493 1493 1494 1494 1495 1496 1496 1497 1498 1498 1498 1498 1499 1499 1500 1500 1499 1499 1499 1499 1499 1499 1498 1498 1498 1497 1497 1496 1495 1494 1493 1492 1492 1490 1489 1488 1487 1486 1485 1484 1482
1489 1489 1489 1490 1490 1491 1491 1492 1493 1493 1494 1494 1494 1494 1494 1494 1494 1495 1495 1495 1495 1495 1494 1494 1493 1493 1493 1492 1491 1491 1490 1489 1488 1487 1486 1485 1484 1483 1482 1481 1480 1479 1477
1485 1485 1486 1486 1486 1487 1487 1488 1489 1489 1490 1490 1491 1491 1491 1490 1490 1490 1490 1490 1490 1490 1490 1489 1489 1488 1487 1487 1486 1485 1485 1484 1483 1482 1481 1480 1479 1478 1477 1476 1475 1474 1473
1482 1482 1482 1482 1483 1483 1484 1484 1485 1485 1486 1486 1486 1487 1487 1487 1487 1486 1486 1486 1486 1486 1485 1485 1484 1483 1482 1482 1481 1480 1479 1478 1477 1476 1476 1475 1474 1473 1472 1471 1470 1469 1468
1478 1478 1478 1479 1479 1479 1480 1480 1481 1481 1482 1482 1482 1482 1482 1482 1482 1482 1481 1481 1481 1480 1480 1480 1479 1478 1478 1477 1476 1475 1474 1473 1472 1472 1471 1470 1469 1468 1467 1466 1465 1463 1462
1474 1474 1474 1475 1475 1475 1476 1476 1476 1477 1477 1477 1477 1478 1478 1478 1478 1477 1477 1476 1476 1475 1475 1475 1474 1473 1473 1472 1471 1470 1469 1468 1467 1466 1465 1465 1463 1462 1462 1460 1459 1458 1457
1470 1470 1470 1471 1471 1471 1471 1472 1472 1472 1473 1473 1473 1473 1473 1473 1473 1472 1472 1472 1471 1471 1470 1469 1469 1468 1467 1466 1465 1464 1463 1463 1462 1461 1460 1459 1458 1457 1456 1455 1454 1453 1452
1466 1466 1466 1467 1467 1467 1467 1468 1468 1468 1468 1468 1468 1468 1468 1468 1468 1468 1467 1467 1466 1466 1465 1464 1464 1463 1462 1461 1460 1459 1458 1457 1456 1456 1455 1454 1453 1452 1451 1450 1449 1448 1447